{"data":{"norad_id":65903,"intl_designator":"2025-224X","name":"STARLINK-35210","alt_names":[],"object_type":"PAYLOAD","status":"ACTIVE","operator":null,"country":"US","launch_date":"2025-10-07","launch_site_code":"AFETR","launch_vehicle":null,"mission":null,"orbit_class":"UNKNOWN","rcs_meters":null,"size_class":null,"mass_kg":null,"dimensions":null,"purposes":["comms"],"wikipedia_slug":null,"has_3d_model":false,"image_url":null,"decayed_at":null,"tle_current":{"epoch":"2026-09-20T04:22:33.214368Z","epoch_age_seconds":133650,"freshness":"FRESH","line1":"1 65903U 25224X   26263.18232887  .00018834  00000+0  56711-3 0  9992","line2":"2 65903  53.1591 187.1181 0001974  91.1360 268.9869 15.34401354 54644","mean_motion":15.34401354,"eccentricity":0.0001974,"inclination_deg":53.1591,"raan_deg":187.1181,"arg_perigee_deg":91.136,"mean_anomaly_deg":268.9869,"bstar":0.00056711,"rev_number":5464,"period_min":93.847675267367,"perigee_km":461.34883476771,"apogee_km":464.04959690573,"semimajor_km":6840.8362158367,"source":"CELESTRAK","updated_at":"2026-09-21T09:00:35.760567Z"}}}